Regional Weather Roundup
Issued by NWS

Home | Current Version | Previous Version | Text Only | Print | Product List | Glossary Off
Versions: 1 2 3 4 5 6 7 8 9 10 11 12 13 14 15 16 17 18 19 20 21 22 23 24 25 26 27 28 29 30 31 32 33 34 35 36 37 38 39 40 41 42 43 44 45 46 47 48 49 50

000
ASUS43 KMKX 291700
RWRWI

WISCONSIN REGIONAL WEATHER ROUNDUP
NATIONAL WEATHER SERVICE MILWAUKEE/SULLIVAN WI
1200 PM CDT TUE JUL 29 2014

NOTE: "FAIR" INDICATES FEW OR NO CLOUDS BELOW 12,000 FEET WITH NO
SIGNIFICANT WEATHER AND/OR OBSTRUCTIONS TO VISIBILITY.

WIZ001-002-006>008-014>016-023>028-291800-
NORTHWEST WISCONSIN

CITY           SKY/WX    TMP DP  RH WIND       PRES   REMARKS
SUPERIOR ARPT  CLOUDY    73  59  62 W7        30.05S
ASHLAND        MOSUNNY   73  58  59 CALM      30.04F
HAYWARD        PTSUNNY   71  57  61 VRB5      30.07F
SIREN          SUNNY     74  56  53 NW6       30.09
RICE LAKE      NOT AVBL
LADYSMITH      MOSUNNY   72  56  55 W7        30.09F
EAU CLAIRE     NOT AVBL
MENOMONIE      SUNNY     76  57  51 W12       30.09F
NEW RICHMOND   SUNNY     74  57  55 W8        30.11S
OSCEOLA        SUNNY     74  61  63 NW7       30.13F
$$

WIZ003>005-009-010-017-018-291800-
NORTH CENTRAL WISCONSIN

CITY           SKY/WX    TMP DP  RH WIND       PRES   REMARKS
WOODRUFF       MOSUNNY   72  57  59 N8G16     30.06S
RHINELANDER    MOSUNNY   69  54  58 NW10G16   30.05F
EAGLE RIVER    PTSUNNY   67  51  56 NW13      30.04S
LAND O LAKES   CLOUDY    67  53  61 NW6       30.05S
PHILLIPS       PTSUNNY   68  57  67 NW6       30.07F
TOMAHAWK       MOSUNNY   68  55  63 NW6       30.06F
MEDFORD        MOSUNNY   68  56  65 NW6       30.08S
MERRILL        SUNNY     70  56  61 N7        30.05F
$$

WIZ029-030-035-036-043>047-291800-
CENTRAL WISCONSIN

CITY           SKY/WX    TMP DP  RH WIND       PRES   REMARKS
WAUSAU         MOSUNNY   71  54  54 NW12      30.04F
MOSINEE        SUNNY     72  55  56 NW9       30.07S
MARSHFIELD     MOSUNNY   75  53  46 NW12      30.07S
STEVENS POINT  MOSUNNY   70  54  56 W5        30.06S
WAUPACA        MOSUNNY   74  54  49 NW8       30.04S
WAUTOMA        NOT AVBL
WISC RAPIDS    MOSUNNY   75  52  44 NW13      30.07S
CAMP DOUGLAS   MOSUNNY   75  59  57 W10       30.07R
$$

WIZ011>013-019>022-031-037>040-048>050-291800-
NORTHEAST WISCONSIN

CITY           SKY/WX    TMP DP  RH WIND       PRES   REMARKS
ANTIGO         MOSUNNY   68  56  65 NW7       30.05S
STURGEON BAY   PTSUNNY   66  54  63 NW8       30.00F
GREEN BAY      MOSUNNY   74  57  55 W8        30.00F
MANITOWOC      NOT AVBL
APPLETON       PTSUNNY   70  54  56 NW8       30.03F
CLINTONVILLE   PTSUNNY   72  54  53 W6        30.02S
OSHKOSH        MOSUNNY   72  55  55 W7        30.03S
$$

WIZ032>034-041-042-053>061-291800-
SOUTHWEST WISCONSIN

CITY           SKY/WX    TMP DP  RH WIND       PRES   REMARKS
LA CROSSE      SUNNY     76  58  53 NW7       30.08F
SPARTA         SUNNY     74  53  47 W7        30.09S
VIROQUA        FAIR      73  57  58 NW7       30.11R
BOSCOBEL       SUNNY     80  56  43 NW9       30.08F HX  80
PRAIRIE DU CHI SUNNY     76  54  45 W7        30.09S
PLATTEVILLE    FAIR      74  56  52 NW8       30.10S
$$

WIZ056-057-062-063-064-067-068-291800-
SOUTH CENTRAL WISCONSIN

CITY           SKY/WX    TMP DP  RH WIND       PRES   REMARKS
BARABOO/DELLS  SUNNY     73  50  43 NW7       30.07S
LONE ROCK      NOT AVBL
WATERTOWN      SUNNY     72  55  55 N8        30.05S
MADISON        MOSUNNY   76  57  51 VRB7      30.06S
MIDDLETON      FAIR      74  54  48 NW15G23   30.07S
MONROE         SUNNY     73  55  53 W10G17    30.07F
JANESVILLE     MOSUNNY   77  54  44 NW9       30.05F
$$

WIZ051-052-058>065-066-070>072-291800-
SOUTHEAST WISCONSIN

CITY           SKY/WX    TMP DP  RH WIND       PRES   REMARKS
MILWAUKEE      PTSUNNY   74  54  49 NW14      30.02F
WAUKESHA       MOSUNNY   72  52  49 W12       30.05S
MILWAUKEE/TIMM NOT AVBL
RACINE         MOSUNNY   74  55  51 NW10      30.04F
BURLINGTON     SUNNY     71  54  56 N9        30.04S
KENOSHA        MOSUNNY   74  57  55 NW8G17    30.03F
FOND DU LAC    MOSUNNY   73  52  47 NW12G17   30.03F
SHEBOYGAN      MOSUNNY   72  55  55 VRB7      30.02S
WEST BEND      MOSUNNY   70  52  52 NW10G16   30.03F
JUNEAU         MOSUNNY   71  51  48 NW7       30.06S
$$

LSZ147-162-291800-
LAKE SUPERIOR

STATION/POSITION TIME  TEMP    WIND        PRES    WAVE
                       AIR SEA DIR/SP/G            HT/PER
                 (UTC) (F)     (DEG/KT/KT) (MB)    (FT/S)
W MID LAKE BUOY  1550   50 44  250/ 10/ 10 1016.7F   1/ 3
PORT WING        1600   68     250/ 10/ 12 1017.3
SAXON HARBOR     1600           CALM  /  5 1017.6S
$$

LMZ867-665-643>646-291800-
LAKE MICHIGAN

STATION/POSITION TIME  TEMP    WIND        PRES    WAVE
                       AIR SEA DIR/SP/G            HT/PER
                 (UTC) (F)     (DEG/KT/KT) (MB)    (FT/S)
N MID LAKE BUOY  1550   56 54  240/  4/  4 1014.6F   1
NORTHPORT PIER   1600   63     320/  6/  7 1015.6R
SISTER BAY       1610   65     320/  9/ 10   N/A
KEWAUNEE LAKESHO 1600   68     320/  5/  8 1016.6S
SHEBOYGAN LAKESH 1600   67      20/  6/  6 1016.7S
PORT WASHINGTON  1640   71      50/  3/ 11 1016.9F
ATWATER BUOY     1600   67     320/  6     1017.7F
MILWAUKEE LAKESH 1600   69     320/  8/ 12   N/A
S MID LAKE BUOY  1550   61 61  300/ 10/ 12 1017.0R   1
KENOSHA   LAKESH 1600   69     320/ 10/ 15 1016.6F
$$

TC  - TEMPERATURE IN CELSIUS
VSB - VISIBILITY IN STATUTE MILES
WCI - WIND CHILL INDEX
HX  - HEAT INDEX




USA.gov is the U.S. government's official web portal to all federal, state and local government web resources and services.